EW2725 Weather Reports


Display with metric or nautical units.
time (UTC)temp
F
wind
direction
speed
MPH
gust
MPH
rain 1hr
in
rain 24hr
in
rain mn
in
humidity
%
barometer
mb
20260831040107 69 235 0.0 0.0 0.00 0.00 0.21 89 1100.1
20260831034612 69 235 0.0 0.0 0.00 0.00 0.12 89 1100.1
20260831033118 69 235 1.0 0.0 0.00 0.00 0.03 88 1100.1
20260831031635 69 235 1.0 0.0 0.00 0.00 0.02 88 1100.1
20260831030110 69 235 1.0 0.0 0.00 0.00 0.02 88 1100.1
20260831024611 69 235 1.0 0.0 0.00 0.00 0.02 87 1100.1
20260831023123 70 235 0.0 0.0 0.00 0.00 0.02 86 1100.1
20260831021633 70 235 1.0 0.0 0.00 0.00 0.01 85 1100.1
20260831020136 71 235 1.0 0.0 0.00 0.00 0.00 84 1100.1
20260831014503 71 235 1.0 0.0 0.00 0.00 0.00 84 1100.1
20260831013017 71 235 2.0 0.0 0.00 0.00 0.00 84 1100.1
20260831011615 71 235 2.0 0.0 0.00 0.00 0.00 84 1100.1
20260831010129 71 242 2.0 0.0 0.00 0.00 0.00 83 1100.1
20260831004636 71 239 2.0 0.0 0.00 0.00 0.00 82 1100.1
20260831003003 72 218 2.0 0.0 0.00 0.00 0.00 80 1100.1
20260831001607 72 234 2.0 0.0 0.00 0.00 0.00 79 1100.1
20260831000116 72 232 3.0 0.0 0.00 0.00 0.00 78 1100.1
20260830234625 72 233 1.0 0.0 0.00 0.00 0.00 77 1100.1
20260830233136 73 227 1.0 0.0 0.00 0.00 0.00 75 1100.1
20260830231513 73 236 2.0 0.0 0.00 0.00 0.00 74 1100.1
20260830230014 73 234 2.0 0.0 0.00 0.00 0.00 73 1100.1
20260830224619 74 246 2.0 0.0 0.00 0.00 0.00 71 1100.1
20260830223126 74 235 1.0 0.0 0.00 0.00 0.00 71 1100.1
20260830221504 74 235 2.0 0.0 0.00 0.00 0.00 70 1100.1
20260830220002 75 242 3.0 0.0 0.00 0.00 0.00 68 1100.1
20260830214503 75 233 3.0 0.0 0.00 0.00 0.00 67 1100.1
20260830213057 75 240 2.0 0.0 0.00 0.00 0.00 67 1100.1
20260830211624 76 240 2.0 0.0 0.00 0.00 0.00 66 1100.1
20260830210117 77 240 2.0 0.0 0.00 0.00 0.00 63 1100.1
20260830204625 78 240 2.0 0.0 0.00 0.00 0.00 62 1100.1
20260830203124 78 222 2.0 0.0 0.00 0.00 0.00 63 1100.1
20260830201631 79 229 3.0 0.0 0.00 0.00 0.00 64 1100.1
20260830200135 79 254 3.0 0.0 0.00 0.00 0.00 63 1100.1
20260830194615 79 254 3.0 0.0 0.00 0.00 0.00 63 1100.1
20260830193119 80 191 4.0 0.0 0.00 0.00 0.00 59 1100.1
20260830191629 83 263 4.0 0.0 0.00 0.00 0.00 56 1100.1
20260830190135 84 245 4.0 0.0 0.00 0.00 0.00 48 1100.1
20260830184511 84 247 3.0 0.0 0.00 0.00 0.00 46 1100.1
20260830183137 84 255 4.0 0.0 0.00 0.00 0.00 47 1100.1
20260830171635 83 265 5.0 0.0 0.00 0.00 0.00 51 1100.1
20260830170138 82 237 4.0 0.0 0.00 0.00 0.00 52 1100.1
20260830164506 83 221 5.0 0.0 0.00 0.00 0.00 51 1100.1
20260830163059 82 259 4.0 0.0 0.00 0.00 0.00 52 1100.1
20260830161611 81 240 4.0 0.0 0.00 0.00 0.00 53 1100.1
20260830160111 80 221 4.0 0.0 0.00 0.00 0.00 55 1100.1
20260830154614 80 220 4.0 0.0 0.00 0.00 0.00 54 1100.1
20260830153105 80 228 4.0 0.0 0.00 0.00 0.00 57 1100.1
20260830151516 79 220 4.0 0.0 0.00 0.00 0.00 58 1100.1
20260830150012 78 247 3.0 0.0 0.00 0.00 0.00 61 1100.1
20260830144602 77 247 3.0 0.0 0.00 0.00 0.00 62 1100.1
20260830143105 76 247 3.0 0.0 0.00 0.00 0.00 65 1100.1
20260830141622 75 247 3.0 0.0 0.00 0.00 0.00 66 1100.1
20260830140125 73 247 3.0 0.0 0.00 0.00 0.00 70 1100.1
20260830134630 73 247 1.0 0.0 0.00 0.00 0.00 72 1100.1
20260830133136 72 247 1.0 0.0 0.00 0.00 0.00 74 1100.1
20260830131501 71 247 1.0 0.0 0.00 0.00 0.00 75 1100.1
20260830130004 70 247 2.0 0.0 0.00 0.00 0.00 77 1100.1
20260830124509 68 247 1.0 0.0 0.00 0.00 0.00 81 1100.1
20260830123002 66 248 1.0 0.0 0.00 0.00 0.00 85 1100.1
20260830121506 64 248 1.0 0.0 0.00 0.00 0.00 88 1100.1
20260830120013 63 247 0.0 0.0 0.00 0.00 0.00 89 1100.1
20260830114614 62 247 0.0 0.0 0.00 0.00 0.00 90 1100.1
20260830113109 61 247 0.0 0.0 0.00 0.00 0.00 90 1100.1
20260830111611 59 247 0.0 0.0 0.00 0.00 0.00 91 1100.1
20260830110125 57 247 0.0 0.0 0.00 0.00 0.00 91 1100.1
20260830104625 56 247 0.0 0.0 0.00 0.00 0.00 91 1100.1
20260830103140 56 247 0.0 0.0 0.00 0.00 0.00 90 1100.1
20260830101504 56 247 0.0 0.0 0.00 0.00 0.00 90 1100.1
20260830094655 56 247 0.0 0.0 0.00 0.00 0.00 90 1100.1
20260830091624 56 247 0.0 0.0 0.00 0.00 0.00 90 1100.1
20260830090138 56 247 0.0 0.0 0.00 0.00 0.00 90 1100.1
20260830083007 55 247 0.0 0.0 0.00 0.00 0.00 90 1100.1
20260830081624 55 247 0.0 0.0 0.00 0.00 0.00 90 1100.1
20260830080129 56 247 0.0 0.0 0.00 0.00 0.00 90 1100.1
20260830074627 56 247 0.0 0.0 0.00 0.00 0.00 90 1100.1
20260830073125 56 247 0.0 0.0 0.00 0.00 0.00 90 1100.1
20260830071502 56 247 0.0 0.0 0.00 0.00 0.00 90 1100.1
20260830070009 57 247 0.0 0.0 0.00 0.00 0.00 90 1100.1
20260830064517 57 247 0.0 0.0 0.00 0.00 0.00 90 1100.1
20260830063115 57 247 0.0 0.0 0.00 0.00 0.00 90 1100.1
20260830061629 57 247 0.0 0.0 0.00 0.00 0.00 90 1100.1
20260830060134 57 247 0.0 0.0 0.00 0.00 0.00 89 1100.1
20260830054506 58 247 0.0 0.0 0.00 0.00 0.00 89 1100.1
20260830053056 58 247 0.0 0.0 0.00 0.00 0.00 89 1100.1
20260830051600 59 247 0.0 0.0 0.00 0.00 0.00 89 1100.1
20260830050110 59 247 0.0 0.0 0.00 0.00 0.00 89 1100.1
20260830044611 59 247 0.0 0.0 0.00 0.00 0.00 89 1100.1
20260830043120 59 247 0.0 0.0 0.00 0.00 0.00 89 1100.1
20260830041502 59 247 0.0 0.0 0.00 0.00 0.00 88 1100.1